Hourly Weather Roundup
Issued by NWS Central Illinois

Home | Current Version | Previous Version | Text Only | Print | Product List | Glossary On
Versions: 1 2 3 4 5 6 7 8 9 10 11 12 13 14 15 16 17 18 19 20 21 22 23 24 25 26 27 28 29 30 31 32 33 34 35 36 37 38 39 40 41 42 43 44 45 46 47 48 49 50
000
NZUS43 KILX 270010
HWRILX

AREA WEATHER ROUNDUP
NATIONAL WEATHER SERVICE, LINCOLN IL
600 PM CST FRI DEC 26 2014


CITY           SKY/WX    TMP DP  RH WIND       PRES   REMARKS
BLOOMINGTON    PTCLDY    44  42  93 S10       30.03S
6HR MIN TEMP:  44; 6HR MAX TEMP:  53;

CHAMPAIGN      PTCLDY    45  41  86 S10       30.05S
6HR MIN TEMP:  45; 6HR MAX TEMP:  53;

DECATUR        PTCLDY    48  43  82 S10       30.04F
6HR MIN TEMP:  47; 6HR MAX TEMP:  54;

FLORA          PTCLDY    46  42  84 S7        30.10S
6HR MIN TEMP:  46; 6HR MAX TEMP:  56;

GALESBURG      CLOUDY    46  40  78 SE3       29.97F
JACKSONVILLE   CLOUDY    52  44  74 SE7       29.99S
6HR MIN TEMP:  52; 6HR MAX TEMP:  58;

LACON          PTCLDY    42  38  86 CALM      30.00R
6HR MIN TEMP:  42; 6HR MAX TEMP:  51;

LAWRENCEVILLE  PTCLDY    48  42  80 S10       30.11F
6HR MIN TEMP:  48; 6HR MAX TEMP:  57;

LITCHFIELD     PTCLDY    48  42  79 S14       30.03S
$$


CITY           SKY/WX    TMP DP  RH WIND       PRES   REMARKS
LINCOLN        PTCLDY    47  42  82 S8        30.02S
6HR MIN TEMP:  47; 6HR MAX TEMP:  56;

MACOMB         CLOUDY    47  42  82 SE5       30.00S
MATTOON        CLOUDY    50  44  80 S10       30.06S
6HR MIN TEMP:  48; 6HR MAX TEMP:  52;

MT CARMEL AP   PTCLDY    50  41  71 S9        30.10F
OLNEY-NOBLE AP PTCLDY    46  41  81 S5        30.10S
PARIS          CLOUDY    45  43  93 SE8       30.09S
6HR MIN TEMP:  44; 6HR MAX TEMP:  51;

PEORIA         CLOUDY    51  42  71 S14       30.01R
6HR MIN TEMP:  49; 6HR MAX TEMP:  54;

PONTIAC        PTCLDY    47  43  85 S12       30.03S
RANTOUL        PTCLDY    45  43  93 S7        30.05F
6HR MIN TEMP:  44; 6HR MAX TEMP:  55;

ROBINSON       PTCLDY    47  41  81 S9        30.11S
6HR MIN TEMP:  47; 6HR MAX TEMP:  55;

SPRINGFIELD    CLOUDY    51  43  74 S12       30.02F
6HR MIN TEMP:  49; 6HR MAX TEMP:  56;

TAYLORVILLE    PTCLDY    48  43  81 S12       30.04R
$$

...REGIONAL REPORTS...


CITY           SKY/WX    TMP DP  RH WIND       PRES   REMARKS
CHICAGO O`HARE MOCLDY    43  38  82 S6        30.01R
KANKAKEE       CLOUDY    47  43  85 S7        30.05R
MOLINE         PTCLDY    42  36  79 S3        29.97R
MOUNT VERNON   PTCLDY    48  39  71 S5        30.09F
PITTSFIELD     MOCLDY    53  44  71 SE6       29.98R
QUINCY         CLOUDY    49  42  77 SE6       29.95S
ROCKFORD       CLOUDY    44  39  82 S8        30.02R
$$


CITY           SKY/WX    TMP DP  RH WIND       PRES   REMARKS
BURLINGTON     CLOUDY    50  42  74 SE5       29.96S
CEDAR RAPIDS   PTCLDY    40  34  79 W6        29.97R
DES MOINES     CLOUDY    35  31  85 N8        29.98F WCI  29
KIRKSVILLE     CLOUDY    48  43  82 CALM      29.94R
OTTUMWA        CLOUDY    39  35  86 NW12      29.96S WCI  32
ST LOUIS       MOCLDY    56  44  64 S13       30.02R
$$


CITY           SKY/WX    TMP DP  RH WIND       PRES   REMARKS
TERRE HAUTE    MOCLDY    48  41  76 S9        30.10S
EVANSVILLE     PTCLDY    53  41  63 S8        30.14F
INDIANAPOLIS   MOCLDY    45  39  79 S9        30.11R
LAFAYETTE      PTCLDY    44  39  82 S5        30.08S
MADISON        CLOUDY    36  32  85 CALM      29.98R
MILWAUKEE      MOCLDY    41  34  76 CALM      30.01R
$$




USA.gov is the U.S. government's official web portal to all federal, state and local government web resources and services.